Total_Precipitation_Accumulation
0.52 0.43 0.55 0.62 0.56 0.62 0.89 0.87 0.79 0.44 0.36 0.39 0.41 0.42 0.43 0.47 0.46 0.46 0.51 0.57 0.60 0.61 0.66 0.70 0.66 0.71 0.81 0.94 0.98 0.99 1.04 1.20 1.39 1.50 1.69 1.77 1.77 1.76 1.78 1.79 1.69 1.66 1.63 1.58
0.59 0.33 0.44 0.52 0.44 0.45 0.52 0.49 0.49 0.34 0.33 0.31 0.36 0.38 0.40 0.45 0.49 0.51 0.56 0.60 0.60 0.60 0.61 0.64 0.67 0.71 0.76 0.86 0.92 0.98 1.05 1.10 1.28 1.51 1.65 1.73 1.75 1.78 1.79 1.81 1.76 1.68 1.63 1.58
1.02 0.46 0.79 0.94 0.59 0.53 0.53 0.50 0.52 0.56 0.48 0.33 0.32 0.37 0.48 0.52 0.54 0.56 0.61 0.65 0.62 0.61 0.60 0.65 0.67 0.70 0.76 0.82 0.87 0.92 0.94 0.98 1.12 1.32 1.50 1.62 1.67 1.76 1.89 1.88 1.80 1.74 1.63 1.56
1.59 1.18 1.54 0.86 0.46 0.44 0.53 0.59 0.57 0.56 0.48 0.43 0.43 0.45 0.49 0.58 0.65 0.62 0.64 0.66 0.64 0.64 0.65 0.67 0.67 0.70 0.77 0.80 0.80 0.84 0.85 0.84 0.92 1.07 1.25 1.44 1.60 1.67 1.77 1.87 1.87 1.77 1.66 1.57
2.16 1.69 1.00 0.48 0.41 0.57 0.65 0.67 0.60 0.55 0.45 0.40 0.38 0.37 0.42 0.53 0.67 0.75 0.75 0.69 0.66 0.63 0.62 0.63 0.67 0.72 0.73 0.78 0.81 0.80 0.81 0.82 0.84 0.92 1.05 1.22 1.40 1.53 1.64 1.75 1.79 1.75 1.66 1.50
2.34 1.84 0.99 0.55 0.38 0.41 0.57 0.77 0.54 0.53 0.53 0.48 0.48 0.55 0.54 0.55 0.63 0.72 0.70 0.67 0.66 0.61 0.57 0.59 0.66 0.70 0.72 0.76 0.80 0.84 0.84 0.83 0.83 0.87 0.93 1.05 1.22 1.37 1.52 1.63 1.69 1.68 1.66 1.50
1.87 1.61 0.83 0.49 0.37 0.37 0.79 0.90 0.54 0.56 0.62 0.62 0.67 0.70 0.61 0.53 0.55 0.60 0.61 0.61 0.61 0.58 0.57 0.63 0.67 0.69 0.75 0.75 0.80 0.82 0.81 0.81 0.82 0.82 0.85 0.94 1.10 1.24 1.39 1.51 1.60 1.59 1.53 1.50
1.26 1.54 0.95 0.50 0.46 0.74 0.92 0.62 0.55 0.55 0.58 0.63 0.59 0.55 0.54 0.53 0.52 0.51 0.54 0.55 0.58 0.59 0.61 0.64 0.64 0.69 0.77 0.77 0.76 0.74 0.74 0.75 0.77 0.77 0.79 0.87 1.01 1.14 1.26 1.40 1.53 1.53 1.45 1.49
0.96 0.90 0.66 0.59 0.70 0.74 0.68 0.63 0.55 0.56 0.54 0.58 0.61 0.58 0.54 0.51 0.48 0.49 0.51 0.52 0.53 0.58 0.60 0.60 0.61 0.66 0.77 0.77 0.72 0.69 0.69 0.72 0.74 0.76 0.79 0.81 0.88 1.04 1.23 1.31 1.42 1.49 1.39 1.40
0.70 0.54 0.45 0.45 0.48 0.52 0.56 0.59 0.54 0.55 0.57 0.58 0.60 0.58 0.52 0.46 0.46 0.46 0.48 0.50 0.49 0.51 0.55 0.60 0.64 0.65 0.70 0.72 0.71 0.65 0.67 0.71 0.71 0.74 0.80 0.78 0.81 0.92 1.11 1.27 1.38 1.47 1.38 1.31
0.59 0.45 0.38 0.35 0.36 0.41 0.43 0.42 0.41 0.44 0.50 0.55 0.56 0.51 0.47 0.45 0.43 0.44 0.48 0.50 0.49 0.51 0.55 0.64 0.69 0.66 0.63 0.66 0.67 0.65 0.66 0.70 0.71 0.71 0.76 0.81 0.86 0.93 1.03 1.18 1.43 1.66 1.56 1.45
0.62 0.47 0.54 0.44 0.35 0.36 0.37 0.37 0.39 0.41 0.43 0.44 0.46 0.45 0.40 0.41 0.42 0.44 0.45 0.45 0.46 0.47 0.50 0.58 0.65 0.65 0.61 0.63 0.66 0.68 0.68 0.68 0.71 0.74 0.75 0.76 0.84 0.97 1.10 1.15 1.26 1.31 1.44 1.54
0.51 0.43 0.43 0.40 0.36 0.34 0.35 0.33 0.35 0.39 0.42 0.43 0.39 0.38 0.37 0.38 0.40 0.44 0.46 0.43 0.44 0.46 0.48 0.54 0.59 0.61 0.61 0.64 0.69 0.72 0.73 0.71 0.74 0.75 0.74 0.75 0.80 0.92 1.08 1.16 1.21 1.24 1.29 1.42
0.35 0.37 0.38 0.35 0.37 0.33 0.32 0.30 0.31 0.33 0.36 0.38 0.39 0.38 0.37 0.36 0.38 0.43 0.47 0.46 0.44 0.43 0.46 0.50 0.55 0.62 0.62 0.63 0.70 0.73 0.74 0.78 0.81 0.78 0.77 0.80 0.87 0.95 1.06 1.16 1.24 1.28 1.33 1.45
0.29 0.35 0.40 0.34 0.31 0.29 0.30 0.30 0.31 0.33 0.34 0.35 0.37 0.41 0.41 0.40 0.39 0.44 0.50 0.50 0.47 0.44 0.44 0.46 0.52 0.61 0.63 0.64 0.69 0.72 0.73 0.76 0.83 0.85 0.83 0.85 0.89 0.99 1.07 1.15 1.21 1.28 1.34 1.54
0.29 0.28 0.30 0.30 0.30 0.29 0.30 0.31 0.33 0.36 0.38 0.38 0.40 0.44 0.47 0.46 0.45 0.48 0.51 0.50 0.49 0.48 0.45 0.45 0.49 0.56 0.63 0.67 0.70 0.71 0.73 0.82 0.88 0.90 0.88 0.89 0.94 1.02 1.10 1.17 1.21 1.27 1.34 1.47
0.41 0.36 0.34 0.34 0.32 0.31 0.33 0.36 0.38 0.40 0.42 0.43 0.45 0.49 0.50 0.47 0.45 0.47 0.49 0.48 0.50 0.51 0.48 0.47 0.49 0.53 0.59 0.63 0.69 0.72 0.75 0.77 0.86 0.88 0.88 0.92 0.98 1.05 1.13 1.21 1.22 1.24 1.27 1.38
0.46 0.46 0.45 0.46 0.44 0.39 0.36 0.35 0.37 0.39 0.43 0.47 0.49 0.51 0.52 0.50 0.47 0.46 0.50 0.50 0.51 0.52 0.48 0.45 0.48 0.54 0.56 0.60 0.67 0.72 0.77 0.79 0.82 0.84 0.89 0.97 1.05 1.09 1.16 1.23 1.21 1.21 1.24 1.33
0.37 0.38 0.39 0.40 0.42 0.44 0.41 0.37 0.36 0.37 0.40 0.43 0.49 0.52 0.53 0.51 0.49 0.50 0.52 0.51 0.53 0.55 0.53 0.50 0.55 0.55 0.55 0.62 0.75 0.74 0.79 0.84 0.87 0.88 0.91 1.02 1.08 1.06 1.13 1.19 1.22 1.21 1.21 1.23
0.33 0.33 0.35 0.36 0.37 0.41 0.41 0.36 0.34 0.35 0.37 0.42 0.47 0.48 0.50 0.51 0.51 0.52 0.52 0.53 0.58 0.64 0.62 0.62 0.60 0.59 0.62 0.69 0.78 0.77 0.82 0.87 0.94 0.97 0.97 0.99 1.04 1.08 1.10 1.17 1.22 1.22 1.18 1.17
0.35 0.36 0.37 0.37 0.36 0.36 0.39 0.39 0.38 0.38 0.38 0.41 0.48 0.52 0.55 0.55 0.52 0.51 0.53 0.56 0.58 0.62 0.63 0.65 0.65 0.71 0.79 0.84 0.86 0.82 0.86 0.90 0.98 1.04 1.05 1.06 1.08 1.09 1.11 1.17 1.21 1.19 1.17 1.16
0.41 0.42 0.42 0.41 0.39 0.38 0.39 0.41 0.43 0.44 0.42 0.42 0.46 0.51 0.55 0.55 0.50 0.47 0.50 0.60 0.64 0.69 0.67 0.63 0.72 0.86 0.95 0.97 0.88 0.84 0.86 0.91 1.00 1.05 1.07 1.11 1.14 1.16 1.15 1.17 1.21 1.18 1.15 1.16
0.50 0.49 0.48 0.47 0.47 0.47 0.44 0.45 0.49 0.51 0.51 0.51 0.53 0.57 0.58 0.57 0.54 0.56 0.58 0.59 0.65 0.73 0.74 0.75 0.89 0.99 1.02 0.96 0.90 0.89 0.92 0.96 1.03 1.09 1.11 1.15 1.17 1.17 1.18 1.19 1.18 1.19 1.20 1.20
0.53 0.53 0.53 0.51 0.48 0.47 0.50 0.52 0.53 0.56 0.57 0.60 0.61 0.63 0.65 0.64 0.58 0.59 0.68 0.73 0.77 0.82 0.81 0.86 0.98 1.05 1.05 0.98 0.94 0.96 1.02 1.04 1.09 1.16 1.16 1.16 1.19 1.19 1.18 1.19 1.20 1.18 1.17 1.18
0.55 0.55 0.53 0.51 0.51 0.55 0.60 0.61 0.60 0.59 0.59 0.61 0.61 0.62 0.66 0.71 0.75 0.72 0.74 0.78 0.80 0.83 0.81 0.84 0.94 1.01 0.99 0.99 0.99 1.02 1.07 1.13 1.24 1.31 1.25 1.21 1.19 1.20 1.18 1.18 1.17 1.16 1.16 1.17
0.58 0.60 0.62 0.64 0.67 0.70 0.71 0.70 0.69 0.67 0.66 0.65 0.64 0.66 0.69 0.72 0.74 0.77 0.80 0.81 0.81 0.83 0.82 0.81 0.86 0.93 0.99 1.03 1.03 1.05 1.11 1.20 1.29 1.30 1.22 1.20 1.18 1.19 1.19 1.18 1.14 1.13 1.14 1.16
0.58 0.60 0.62 0.63 0.66 0.72 0.77 0.78 0.79 0.79 0.77 0.76 0.77 0.75 0.76 0.77 0.78 0.79 0.80 0.79 0.79 0.81 0.85 0.89 0.93 1.00 1.09 1.10 1.10 1.11 1.16 1.20 1.23 1.26 1.24 1.22 1.20 1.20 1.18 1.17 1.15 1.16 1.16 1.15